Time,TemperatureF,DewpointF,PressureIn,WindDirection,WindDirectionDegrees,WindSpeedMPH,WindSpeedGustMPH,Humidity,HourlyPrecipIn,Conditions,Clouds,dailyrainin,SoftwareType,DateUTC
2013-02-14 00:00:00,34.1,16.9,30.34,NE,44,2.0,2.0,49,0.00,,,0.00,Wunderground v.1.15,2013-02-14 07:00:00,
2013-02-14 00:10:00,34.3,17.1,30.34,North,7,3.0,4.0,49,0.00,,,0.00,Wunderground v.1.15,2013-02-14 07:10:00,
2013-02-14 00:15:00,34.4,17.2,30.34,North,349,4.0,6.0,49,0.00,,,0.00,Wunderground v.1.15,2013-02-14 07:15:00,
2013-02-14 00:25:00,34.7,17.0,30.34,NW,312,4.0,5.0,48,0.00,,,0.00,Wunderground v.1.15,2013-02-14 07:25:00,
2013-02-14 00:35:00,34.5,16.8,30.34,NNE,30,1.0,3.0,48,0.00,,,0.00,Wunderground v.1.15,2013-02-14 07:35:00,
2013-02-14 00:40:00,34.0,16.8,30.34,East,83,1.0,1.0,49,0.00,,,0.00,Wunderground v.1.15,2013-02-14 07:40:00,
2013-02-14 00:50:00,33.0,16.4,30.34,NW,316,0.0,0.0,50,0.00,,,0.00,Wunderground v.1.15,2013-02-14 07:50:00,
2013-02-14 00:55:00,33.3,16.6,30.33,NW,326,0.0,2.0,50,0.00,,,0.00,Wunderground v.1.15,2013-02-14 07:55:00,
2013-02-14 01:00:00,33.4,16.7,30.33,North,351,2.0,2.0,50,0.00,,,0.00,Wunderground v.1.15,2013-02-14 08:00:00,
2013-02-14 01:10:00,32.8,16.6,30.33,North,11,2.0,3.0,51,0.00,,,0.00,Wunderground v.1.15,2013-02-14 08:10:00,
2013-02-14 01:20:00,32.7,16.5,30.33,North,8,1.0,1.0,51,0.00,,,0.00,Wunderground v.1.15,2013-02-14 08:20:00,
2013-02-14 01:25:00,32.6,16.4,30.33,NNW,340,1.0,1.0,51,0.00,,,0.00,Wunderground v.1.15,2013-02-14 08:25:00,
2013-02-14 01:35:00,31.8,16.2,30.33,NNE,22,0.0,1.0,52,0.00,,,0.00,Wunderground v.1.15,2013-02-14 08:35:00,
2013-02-14 01:45:00,31.0,16.3,30.33,NNE,21,0.0,0.0,54,0.00,,,0.00,Wunderground v.1.15,2013-02-14 08:45:00,
2013-02-14 01:50:00,30.8,16.1,30.32,NNE,22,0.0,0.0,54,0.00,,,0.00,Wunderground v.1.15,2013-02-14 08:50:00,
2013-02-14 01:55:00,30.5,16.2,30.32,NNE,22,0.0,0.0,55,0.00,,,0.00,Wunderground v.1.15,2013-02-14 08:55:00,
2013-02-14 02:00:00,30.5,16.7,30.32,NNE,22,0.0,0.0,56,0.00,,,0.00,Wunderground v.1.15,2013-02-14 09:00:00,
2013-02-14 02:10:00,30.1,16.3,30.32,NNE,22,0.0,0.0,56,0.00,,,0.00,Wunderground v.1.15,2013-02-14 09:10:00,
2013-02-14 02:15:00,29.8,16.0,30.31,NNE,22,0.0,0.0,56,0.00,,,0.00,Wunderground v.1.15,2013-02-14 09:15:00,
2013-02-14 02:25:00,29.1,16.1,30.32,NNE,22,0.0,0.0,58,0.00,,,0.00,Wunderground v.1.15,2013-02-14 09:25:00,
2013-02-14 02:30:00,28.7,16.2,30.32,SE,131,0.0,0.0,59,0.00,,,0.00,Wunderground v.1.15,2013-02-14 09:30:00,
2013-02-14 02:40:00,28.4,16.3,30.31,ESE,102,0.0,0.0,60,0.00,,,0.00,Wunderground v.1.15,2013-02-14 09:40:00,
2013-02-14 02:45:00,28.5,16.4,30.31,NNE,13,0.0,0.0,60,0.00,,,0.00,Wunderground v.1.15,2013-02-14 09:45:00,
2013-02-14 02:55:00,29.0,16.4,30.31,North,355,0.0,0.0,59,0.00,,,0.00,Wunderground v.1.15,2013-02-14 09:55:00,
2013-02-14 03:00:00,29.1,16.5,30.31,NE,35,0.0,0.0,59,0.00,,,0.00,Wunderground v.1.15,2013-02-14 10:00:00,
2013-02-14 03:10:00,29.9,16.9,30.32,North,6,0.0,3.0,58,0.00,,,0.00,Wunderground v.1.15,2013-02-14 10:10:00,
2013-02-14 03:15:00,30.0,17.0,30.31,North,359,1.0,3.0,58,0.00,,,0.00,Wunderground v.1.15,2013-02-14 10:15:00,
2013-02-14 03:20:00,30.1,16.7,30.31,North,355,1.0,1.0,57,0.00,,,0.00,Wunderground v.1.15,2013-02-14 10:20:00,
2013-02-14 03:30:00,30.0,17.0,30.31,NNW,338,0.0,0.0,58,0.00,,,0.00,Wunderground v.1.15,2013-02-14 10:30:00,
2013-02-14 03:35:00,29.8,16.8,30.31,NNE,16,0.0,0.0,58,0.00,,,0.00,Wunderground v.1.15,2013-02-14 10:35:00,
2013-02-14 03:45:00,30.1,17.1,30.30,North,7,1.0,2.0,58,0.00,,,0.00,Wunderground v.1.15,2013-02-14 10:45:00,
2013-02-14 03:55:00,29.7,16.7,30.30,North,11,0.0,1.0,58,0.00,,,0.00,Wunderground v.1.15,2013-02-14 10:55:00,
2013-02-14 04:00:00,29.4,16.8,30.30,North,11,0.0,0.0,59,0.00,,,0.00,Wunderground v.1.15,2013-02-14 11:00:00,
2013-02-14 04:10:00,29.1,16.5,30.30,North,11,0.0,0.0,59,0.00,,,0.00,Wunderground v.1.15,2013-02-14 11:10:00,
2013-02-14 04:20:00,27.7,15.6,30.30,North,11,0.0,0.0,60,0.00,,,0.00,Wunderground v.1.15,2013-02-14 11:20:00,
2013-02-14 04:30:00,26.7,16.5,30.31,North,4,0.0,0.0,65,0.00,,,0.00,Wunderground v.1.15,2013-02-14 11:30:00,
2013-02-14 04:40:00,27.1,15.8,30.31,North,4,0.0,0.0,62,0.00,,,0.00,Wunderground v.1.15,2013-02-14 11:40:00,
2013-02-14 04:45:00,26.9,16.3,30.31,NNE,12,0.0,0.0,64,0.00,,,0.00,Wunderground v.1.15,2013-02-14 11:45:00,
2013-02-14 04:55:00,27.8,16.8,30.31,NNE,23,0.0,1.0,63,0.00,,,0.00,Wunderground v.1.15,2013-02-14 11:55:00,
2013-02-14 05:00:00,28.3,16.9,30.31,NNE,29,1.0,1.0,62,0.00,,,0.00,Wunderground v.1.15,2013-02-14 12:00:00,
2013-02-14 05:10:00,28.2,16.5,30.31,NE,37,0.0,0.0,61,0.00,,,0.00,Wunderground v.1.15,2013-02-14 12:10:00,
2013-02-14 05:15:00,28.1,16.4,30.31,NE,39,0.0,0.0,61,0.00,,,0.00,Wunderground v.1.15,2013-02-14 12:15:00,
2013-02-14 05:20:00,28.2,16.8,30.31,North,354,0.0,1.0,62,0.00,,,0.00,Wunderground v.1.15,2013-02-14 12:20:00,
2013-02-14 05:25:00,28.7,16.9,30.31,NNE,13,1.0,1.0,61,0.00,,,0.00,Wunderground v.1.15,2013-02-14 12:25:00,
2013-02-14 05:35:00,29.0,17.2,30.32,NNW,340,1.0,1.0,61,0.00,,,0.00,Wunderground v.1.15,2013-02-14 12:35:00,
2013-02-14 05:45:00,29.3,17.1,30.32,NNE,29,1.0,3.0,60,0.00,,,0.00,Wunderground v.1.15,2013-02-14 12:45:00,
2013-02-14 05:50:00,29.3,17.1,30.32,NNE,13,1.0,1.0,60,0.00,,,0.00,Wunderground v.1.15,2013-02-14 12:50:00,
2013-02-14 05:55:00,29.3,17.1,30.32,ENE,63,1.0,2.0,60,0.00,,,0.00,Wunderground v.1.15,2013-02-14 12:55:00,
2013-02-14 06:00:00,29.4,17.2,30.32,North,353,1.0,1.0,60,0.00,,,0.00,Wunderground v.1.15,2013-02-14 13:00:00,
2013-02-14 06:10:00,29.8,17.6,30.32,NNE,18,2.0,3.0,60,0.00,,,0.00,Wunderground v.1.15,2013-02-14 13:10:00,
2013-02-14 06:20:00,30.0,17.4,30.33,NNW,345,2.0,2.0,59,0.00,,,0.00,Wunderground v.1.15,2013-02-14 13:20:00,
2013-02-14 06:30:00,29.8,17.6,30.33,NNE,19,1.0,1.0,60,0.00,,,0.00,Wunderground v.1.15,2013-02-14 13:30:00,
2013-02-14 06:35:00,29.6,17.4,30.33,NW,321,1.0,1.0,60,0.00,,,0.00,Wunderground v.1.15,2013-02-14 13:35:00,
2013-02-14 06:45:00,29.0,17.2,30.34,West,275,0.0,0.0,61,0.00,,,0.00,Wunderground v.1.15,2013-02-14 13:45:00,
2013-02-14 06:55:00,28.3,16.9,30.34,West,280,0.0,0.0,62,0.00,,,0.00,Wunderground v.1.15,2013-02-14 13:55:00,
2013-02-14 07:00:00,28.0,17.0,30.34,West,269,0.0,0.0,63,0.00,,,0.00,Wunderground v.1.15,2013-02-14 14:00:00,
2013-02-14 07:10:00,27.2,16.6,30.34,West,268,0.0,0.0,64,0.00,,,0.00,Wunderground v.1.15,2013-02-14 14:10:00,
2013-02-14 07:15:00,26.9,16.7,30.34,West,268,0.0,0.0,65,0.00,,,0.00,Wunderground v.1.15,2013-02-14 14:15:00,
2013-02-14 07:25:00,26.8,17.0,30.35,West,269,0.0,0.0,66,0.00,,,0.00,Wunderground v.1.15,2013-02-14 14:25:00,
2013-02-14 07:30:00,27.1,17.2,30.35,NNE,15,0.0,1.0,66,0.00,,,0.00,Wunderground v.1.15,2013-02-14 14:30:00,
2013-02-14 07:40:00,28.2,17.6,30.35,NNW,346,1.0,1.0,64,0.00,,,0.00,Wunderground v.1.15,2013-02-14 14:40:00,
2013-02-14 07:50:00,29.3,17.9,30.35,NNW,330,1.0,1.0,62,0.00,,,0.00,Wunderground v.1.15,2013-02-14 14:50:00,
2013-02-14 07:55:00,29.8,18.0,30.35,NNW,347,1.0,2.0,61,0.00,,,0.00,Wunderground v.1.15,2013-02-14 14:55:00,
2013-02-14 08:00:00,30.4,18.2,30.35,NW,314,1.0,1.0,60,0.00,,,0.00,Wunderground v.1.15,2013-02-14 15:00:00,
2013-02-14 08:10:00,32.1,18.6,30.35,NW,317,1.0,1.0,57,0.00,,,0.00,Wunderground v.1.15,2013-02-14 15:10:00,
2013-02-14 08:15:00,33.0,18.6,30.36,NNW,328,2.0,2.0,55,0.00,,,0.00,Wunderground v.1.15,2013-02-14 15:15:00,
2013-02-14 08:25:00,34.4,18.6,30.36,North,11,2.0,8.0,52,0.00,,,0.00,Wunderground v.1.15,2013-02-14 15:25:00,
2013-02-14 08:30:00,34.9,18.1,30.35,NNW,335,4.0,5.0,50,0.00,,,0.00,Wunderground v.1.15,2013-02-14 15:30:00,
2013-02-14 08:40:00,35.4,18.1,30.35,NNW,338,6.0,6.0,49,0.00,,,0.00,Wunderground v.1.15,2013-02-14 15:40:00,
2013-02-14 08:45:00,35.7,18.4,30.35,North,354,6.0,6.0,49,0.00,,,0.00,Wunderground v.1.15,2013-02-14 15:45:00,
2013-02-14 08:55:00,36.4,18.1,30.36,ENE,66,5.0,7.0,47,0.00,,,0.00,Wunderground v.1.15,2013-02-14 15:55:00,
2013-02-14 09:00:00,36.5,18.2,30.35,NNW,336,5.0,5.0,47,0.00,,,0.00,Wunderground v.1.15,2013-02-14 16:00:00,
2013-02-14 09:10:00,37.1,18.2,30.35,NNW,331,5.0,5.0,46,0.00,,,0.00,Wunderground v.1.15,2013-02-14 16:10:00,
2013-02-14 09:15:00,37.4,18.5,30.35,NNW,347,6.0,8.0,46,0.00,,,0.00,Wunderground v.1.15,2013-02-14 16:15:00,
2013-02-14 09:20:00,37.8,18.3,30.35,NW,304,5.0,5.0,45,0.00,,,0.00,Wunderground v.1.15,2013-02-14 16:20:00,
2013-02-14 09:25:00,38.3,18.3,30.35,NNW,338,5.0,6.0,44,0.00,,,0.00,Wunderground v.1.15,2013-02-14 16:25:00,
2013-02-14 09:30:00,38.3,18.3,30.35,North,353,5.0,8.0,44,0.00,,,0.00,Wunderground v.1.15,2013-02-14 16:30:00,
2013-02-14 09:40:00,38.5,17.9,30.35,NNW,345,6.0,7.0,43,0.00,,,0.00,Wunderground v.1.15,2013-02-14 16:40:00,
2013-02-14 09:50:00,38.4,18.4,30.34,North,9,6.0,6.0,44,0.00,,,0.00,Wunderground v.1.15,2013-02-14 16:50:00,
2013-02-14 09:55:00,38.6,18.5,30.35,North,1,6.0,6.0,44,0.00,,,0.00,Wunderground v.1.15,2013-02-14 16:55:00,
2013-02-14 10:00:00,38.9,18.3,30.35,WNW,303,4.0,6.0,43,0.00,,,0.00,Wunderground v.1.15,2013-02-14 17:00:00,
2013-02-14 10:10:00,39.6,18.9,30.34,NW,319,3.0,3.0,43,0.00,,,0.00,Wunderground v.1.15,2013-02-14 17:10:00,
2013-02-14 10:15:00,40.2,18.9,30.34,NNW,338,3.0,3.0,42,0.00,,,0.00,Wunderground v.1.15,2013-02-14 17:15:00,
2013-02-14 10:25:00,40.5,18.6,30.34,NNW,342,5.0,5.0,41,0.00,,,0.00,Wunderground v.1.15,2013-02-14 17:25:00,
2013-02-14 10:35:00,41.1,19.2,30.34,NNE,13,5.0,8.0,41,0.00,,,0.00,Wunderground v.1.15,2013-02-14 17:35:00,
2013-02-14 10:40:00,41.4,18.9,30.34,NW,324,6.0,11.0,40,0.00,,,0.00,Wunderground v.1.15,2013-02-14 17:40:00,
2013-02-14 10:50:00,42.0,19.4,30.33,NNW,345,7.0,7.0,40,0.00,,,0.00,Wunderground v.1.15,2013-02-14 17:50:00,
2013-02-14 10:55:00,42.4,19.2,30.33,NNE,14,7.0,13.0,39,0.00,,,0.00,Wunderground v.1.15,2013-02-14 17:55:00,
2013-02-14 11:00:00,42.6,18.7,30.33,NNW,342,8.0,10.0,38,0.00,,,0.00,Wunderground v.1.15,2013-02-14 18:00:00,
2013-02-14 11:10:00,43.0,17.2,30.32,WNW,290,8.0,9.0,35,0.00,,,0.00,Wunderground v.1.15,2013-02-14 18:10:00,
2013-02-14 11:15:00,43.1,17.3,30.32,NW,326,10.0,10.0,35,0.00,,,0.00,Wunderground v.1.15,2013-02-14 18:15:00,
2013-02-14 11:20:00,43.3,16.8,30.32,NW,321,11.0,11.0,34,0.00,,,0.00,Wunderground v.1.15,2013-02-14 18:20:00,
2013-02-14 11:30:00,43.4,16.9,30.32,NNW,335,10.0,10.0,34,0.00,,,0.00,Wunderground v.1.15,2013-02-14 18:30:00,
2013-02-14 11:35:00,43.2,17.4,30.32,NNW,328,10.0,10.0,35,0.00,,,0.00,Wunderground v.1.15,2013-02-14 18:35:00,
2013-02-14 11:45:00,43.2,16.7,30.31,NNW,342,9.0,11.0,34,0.00,,,0.00,Wunderground v.1.15,2013-02-14 18:45:00,
2013-02-14 11:55:00,43.9,18.0,30.30,NNW,329,7.0,9.0,35,0.00,,,0.00,Wunderground v.1.15,2013-02-14 18:55:00,
2013-02-14 12:00:00,44.0,17.4,30.30,NW,319,7.0,7.0,34,0.00,,,0.00,Wunderground v.1.15,2013-02-14 19:00:00,
2013-02-14 12:10:00,44.5,17.8,30.29,NW,322,8.0,8.0,34,0.00,,,0.00,Wunderground v.1.15,2013-02-14 19:10:00,
2013-02-14 12:15:00,44.7,18.0,30.28,WNW,301,7.0,8.0,34,0.00,,,0.00,Wunderground v.1.15,2013-02-14 19:15:00,
2013-02-14 12:25:00,44.5,17.8,30.28,North,6,6.0,6.0,34,0.00,,,0.00,Wunderground v.1.15,2013-02-14 19:25:00,
2013-02-14 12:35:00,45.0,17.6,30.27,WNW,298,7.0,11.0,33,0.00,,,0.00,Wunderground v.1.15,2013-02-14 19:35:00,
2013-02-14 12:45:00,45.7,17.5,30.26,North,349,7.0,8.0,32,0.00,,,0.00,Wunderground v.1.15,2013-02-14 19:45:00,
2013-02-14 12:50:00,45.9,17.7,30.26,NNW,338,7.0,7.0,32,0.00,,,0.00,Wunderground v.1.15,2013-02-14 19:50:00,
2013-02-14 12:55:00,46.5,18.2,30.25,NNW,333,7.0,7.0,32,0.00,,,0.00,Wunderground v.1.15,2013-02-14 19:55:00,
2013-02-14 13:00:00,46.8,17.7,30.25,NNW,331,6.0,7.0,31,0.00,,,0.00,Wunderground v.1.15,2013-02-14 20:00:00,
2013-02-14 13:10:00,47.8,17.0,30.24,NNE,21,7.0,7.0,29,0.00,,,0.00,Wunderground v.1.15,2013-02-14 20:10:00,
2013-02-14 13:15:00,48.4,17.6,30.24,NNE,14,5.0,12.0,29,0.00,,,0.00,Wunderground v.1.15,2013-02-14 20:15:00,
2013-02-14 13:20:00,48.2,17.4,30.24,NNW,330,6.0,7.0,29,0.00,,,0.00,Wunderground v.1.15,2013-02-14 20:20:00,
2013-02-14 13:25:00,48.3,18.3,30.24,North,6,6.0,7.0,30,0.00,,,0.00,Wunderground v.1.15,2013-02-14 20:25:00,
2013-02-14 13:35:00,48.9,15.5,30.23,WNW,290,6.0,6.0,26,0.00,,,0.00,Wunderground v.1.15,2013-02-14 20:35:00,
2013-02-14 13:40:00,49.2,14.8,30.23,NNW,342,6.0,6.0,25,0.00,,,0.00,Wunderground v.1.15,2013-02-14 20:40:00,
2013-02-14 13:45:00,49.5,15.1,30.24,WSW,250,5.0,7.0,25,0.00,,,0.00,Wunderground v.1.15,2013-02-14 20:45:00,
2013-02-14 13:55:00,49.9,14.5,30.23,NW,315,7.0,10.0,24,0.00,,,0.00,Wunderground v.1.15,2013-02-14 20:55:00,
2013-02-14 14:00:00,50.3,13.9,30.23,NNW,332,7.0,11.0,23,0.00,,,0.00,Wunderground v.1.15,2013-02-14 21:00:00,
2013-02-14 14:10:00,50.5,14.0,30.23,NNW,328,8.0,15.0,23,0.00,,,0.00,Wunderground v.1.15,2013-02-14 21:10:00,
2013-02-14 14:15:00,50.1,13.7,30.23,NNW,328,10.0,15.0,23,0.00,,,0.00,Wunderground v.1.15,2013-02-14 21:15:00,
2013-02-14 14:25:00,50.5,14.0,30.23,NNW,335,10.0,12.0,23,0.00,,,0.00,Wunderground v.1.15,2013-02-14 21:25:00,
2013-02-14 14:30:00,50.6,14.1,30.24,NW,318,9.0,10.0,23,0.00,,,0.00,Wunderground v.1.15,2013-02-14 21:30:00,
2013-02-14 14:40:00,50.7,15.2,30.24,WNW,287,8.0,8.0,24,0.00,,,0.00,Wunderground v.1.15,2013-02-14 21:40:00,
2013-02-14 14:50:00,50.7,16.1,30.24,NW,321,8.0,9.0,25,0.00,,,0.00,Wunderground v.1.15,2013-02-14 21:50:00,
2013-02-14 14:55:00,50.3,15.8,30.24,NNW,328,7.0,9.0,25,0.00,,,0.00,Wunderground v.1.15,2013-02-14 21:55:00,
2013-02-14 15:00:00,50.3,16.7,30.23,NNW,331,8.0,8.0,26,0.00,,,0.00,Wunderground v.1.15,2013-02-14 22:00:00,
2013-02-14 15:10:00,50.2,16.6,30.24,NNE,25,11.0,11.0,26,0.00,,,0.00,Wunderground v.1.15,2013-02-14 22:10:00,
2013-02-14 15:20:00,50.0,16.4,30.24,NNW,336,9.0,9.0,26,0.00,,,0.00,Wunderground v.1.15,2013-02-14 22:20:00,
2013-02-14 15:30:00,50.4,16.8,30.24,North,4,6.0,9.0,26,0.00,,,0.00,Wunderground v.1.15,2013-02-14 22:30:00,
2013-02-14 15:40:00,50.2,16.6,30.24,NNW,332,8.0,10.0,26,0.00,,,0.00,Wunderground v.1.15,2013-02-14 22:40:00,
2013-02-14 15:45:00,50.1,16.5,30.24,NW,317,10.0,12.0,26,0.00,,,0.00,Wunderground v.1.15,2013-02-14 22:45:00,
2013-02-14 15:50:00,50.1,16.5,30.24,NNW,333,9.0,14.0,26,0.00,,,0.00,Wunderground v.1.15,2013-02-14 22:50:00,
2013-02-14 16:00:00,50.2,16.6,30.24,NNW,335,8.0,8.0,26,0.00,,,0.00,Wunderground v.1.15,2013-02-14 23:00:00,
2013-02-14 16:10:00,50.0,16.4,30.24,NW,314,9.0,9.0,26,0.00,,,0.00,Wunderground v.1.15,2013-02-14 23:10:00,
2013-02-14 16:20:00,49.7,16.2,30.24,North,9,10.0,16.0,26,0.00,,,0.00,Wunderground v.1.15,2013-02-14 23:20:00,
2013-02-14 16:30:00,49.7,16.2,30.24,NNW,328,9.0,11.0,26,0.00,,,0.00,Wunderground v.1.15,2013-02-14 23:30:00,
2013-02-14 16:35:00,49.5,16.9,30.24,NNW,337,8.0,11.0,27,0.00,,,0.00,Wunderground v.1.15,2013-02-14 23:35:00,
2013-02-14 16:45:00,49.1,16.5,30.24,NNW,340,10.0,13.0,27,0.00,,,0.00,Wunderground v.1.15,2013-02-14 23:45:00,
2013-02-14 16:50:00,48.9,16.3,30.24,NNE,18,10.0,10.0,27,0.00,,,0.00,Wunderground v.1.15,2013-02-14 23:50:00,
2013-02-14 17:00:00,48.4,16.7,30.23,NNW,335,10.0,10.0,28,0.00,,,0.00,Wunderground v.1.15,2013-02-15 00:00:00,
2013-02-14 17:10:00,47.9,16.3,30.24,NW,325,11.0,14.0,28,0.00,,,0.00,Wunderground v.1.15,2013-02-15 00:10:00,
2013-02-14 17:15:00,48.0,17.2,30.24,NNW,348,9.0,14.0,29,0.00,,,0.00,Wunderground v.1.15,2013-02-15 00:15:00,
2013-02-14 17:25:00,47.7,16.9,30.25,North,352,8.0,12.0,29,0.00,,,0.00,Wunderground v.1.15,2013-02-15 00:25:00,
2013-02-14 17:30:00,47.4,17.5,30.25,North,356,6.0,10.0,30,0.00,,,0.00,Wunderground v.1.15,2013-02-15 00:30:00,
2013-02-14 17:40:00,46.6,17.5,30.25,North,358,9.0,9.0,31,0.00,,,0.00,Wunderground v.1.15,2013-02-15 00:40:00,
2013-02-14 17:50:00,46.0,17.0,30.25,NW,322,6.0,6.0,31,0.00,,,0.00,Wunderground v.1.15,2013-02-15 00:50:00,
2013-02-14 17:55:00,45.7,17.5,30.26,NW,325,6.0,11.0,32,0.00,,,0.00,Wunderground v.1.15,2013-02-15 00:55:00,
2013-02-14 18:00:00,45.4,17.2,30.25,NW,316,5.0,10.0,32,0.00,,,0.00,Wunderground v.1.15,2013-02-15 01:00:00,
2013-02-14 18:10:00,45.0,17.6,30.26,NNW,336,6.0,6.0,33,0.00,,,0.00,Wunderground v.1.15,2013-02-15 01:10:00,
2013-02-14 18:15:00,44.8,17.4,30.26,NNW,346,4.0,6.0,33,0.00,,,0.00,Wunderground v.1.15,2013-02-15 01:15:00,
2013-02-14 18:25:00,44.4,17.7,30.27,NNW,338,3.0,4.0,34,0.00,,,0.00,Wunderground v.1.15,2013-02-15 01:25:00,
2013-02-14 18:35:00,44.0,18.1,30.27,NNW,336,3.0,5.0,35,0.00,,,0.00,Wunderground v.1.15,2013-02-15 01:35:00,
2013-02-14 18:45:00,43.7,17.8,30.28,NNE,27,2.0,3.0,35,0.00,,,0.00,Wunderground v.1.15,2013-02-15 01:45:00,
2013-02-14 18:50:00,43.6,17.7,30.28,NNW,340,3.0,3.0,35,0.00,,,0.00,Wunderground v.1.15,2013-02-15 01:50:00,
2013-02-14 19:00:00,43.3,18.1,30.29,NNW,346,2.0,4.0,36,0.00,,,0.00,Wunderground v.1.15,2013-02-15 02:00:00,
2013-02-14 19:10:00,42.9,17.7,30.29,NNE,12,2.0,2.0,36,0.00,,,0.00,Wunderground v.1.15,2013-02-15 02:10:00,
2013-02-14 19:15:00,42.7,18.2,30.29,North,352,1.0,4.0,37,0.00,,,0.00,Wunderground v.1.15,2013-02-15 02:15:00,
2013-02-14 19:20:00,42.6,18.1,30.30,NNW,329,2.0,3.0,37,0.00,,,0.00,Wunderground v.1.15,2013-02-15 02:20:00,
2013-02-14 19:30:00,42.3,18.5,30.30,North,355,1.0,1.0,38,0.00,,,0.00,Wunderground v.1.15,2013-02-15 02:30:00,
2013-02-14 19:40:00,41.6,18.4,30.31,NW,322,0.0,0.0,39,0.00,,,0.00,Wunderground v.1.15,2013-02-15 02:40:00,
2013-02-14 19:50:00,41.3,18.8,30.31,NNW,342,1.0,3.0,40,0.00,,,0.00,Wunderground v.1.15,2013-02-15 02:50:00,
2013-02-14 19:55:00,41.5,18.9,30.31,NW,318,3.0,3.0,40,0.00,,,0.00,Wunderground v.1.15,2013-02-15 02:55:00,
2013-02-14 20:00:00,41.5,18.9,30.31,NNW,328,4.0,4.0,40,0.00,,,0.00,Wunderground v.1.15,2013-02-15 03:00:00,
2013-02-14 20:10:00,41.9,19.3,30.31,NNE,13,5.0,5.0,40,0.00,,,0.00,Wunderground v.1.15,2013-02-15 03:10:00,
2013-02-14 20:20:00,41.8,19.2,30.32,NNE,18,2.0,2.0,40,0.00,,,0.00,Wunderground v.1.15,2013-02-15 03:20:00,
2013-02-14 20:25:00,41.4,18.9,30.32,NNW,341,1.0,2.0,40,0.00,,,0.00,Wunderground v.1.15,2013-02-15 03:25:00,
2013-02-14 20:35:00,41.0,19.1,30.32,NNW,340,2.0,3.0,41,0.00,,,0.00,Wunderground v.1.15,2013-02-15 03:35:00,
2013-02-14 20:45:00,40.7,19.4,30.32,NNW,344,2.0,2.0,42,0.00,,,0.00,Wunderground v.1.15,2013-02-15 03:45:00,
2013-02-14 20:50:00,40.7,19.4,30.32,NNW,338,2.0,2.0,42,0.00,,,0.00,Wunderground v.1.15,2013-02-15 03:50:00,
2013-02-14 21:00:00,40.8,19.5,30.33,NNW,335,4.0,4.0,42,0.00,,,0.00,Wunderground v.1.15,2013-02-15 04:00:00,
2013-02-14 21:10:00,40.7,19.4,30.34,NNW,345,3.0,3.0,42,0.00,,,0.00,Wunderground v.1.15,2013-02-15 04:10:00,
2013-02-14 21:20:00,40.2,18.9,30.35,NNW,347,2.0,2.0,42,0.00,,,0.00,Wunderground v.1.15,2013-02-15 04:20:00,
2013-02-14 21:30:00,39.0,18.9,30.35,North,1,0.0,1.0,44,0.00,,,0.00,Wunderground v.1.15,2013-02-15 04:30:00,
2013-02-14 21:35:00,38.4,18.9,30.35,North,355,1.0,1.0,45,0.00,,,0.00,Wunderground v.1.15,2013-02-15 04:35:00,
2013-02-14 21:45:00,37.7,18.8,30.36,NNE,19,0.0,1.0,46,0.00,,,0.00,Wunderground v.1.15,2013-02-15 04:45:00,
2013-02-14 21:50:00,37.2,18.8,30.36,NNE,27,0.0,0.0,47,0.00,,,0.00,Wunderground v.1.15,2013-02-15 04:50:00,
2013-02-14 22:00:00,36.7,18.3,30.37,NNE,19,1.0,1.0,47,0.00,,,0.00,Wunderground v.1.15,2013-02-15 05:00:00,
2013-02-14 22:10:00,36.3,18.5,30.38,NE,39,0.0,0.0,48,0.00,,,0.00,Wunderground v.1.15,2013-02-15 05:10:00,
2013-02-14 22:15:00,36.0,18.7,30.38,NNE,26,0.0,1.0,49,0.00,,,0.00,Wunderground v.1.15,2013-02-15 05:15:00,
2013-02-14 22:20:00,36.0,18.7,30.38,NNE,26,0.0,0.0,49,0.00,,,0.00,Wunderground v.1.15,2013-02-15 05:20:00,
2013-02-14 22:30:00,35.6,18.8,30.38,NNE,30,0.0,0.0,50,0.00,,,0.00,Wunderground v.1.15,2013-02-15 05:30:00,
2013-02-14 22:40:00,35.3,18.5,30.38,NNW,345,1.0,2.0,50,0.00,,,0.00,Wunderground v.1.15,2013-02-15 05:40:00,
2013-02-14 22:45:00,35.5,18.7,30.38,North,1,2.0,2.0,50,0.00,,,0.00,Wunderground v.1.15,2013-02-15 05:45:00,
2013-02-14 22:55:00,35.7,18.4,30.39,ESE,118,1.0,2.0,49,0.00,,,0.00,Wunderground v.1.15,2013-02-15 05:55:00,
2013-02-14 23:00:00,35.3,18.5,30.39,SE,135,0.0,0.0,50,0.00,,,0.00,Wunderground v.1.15,2013-02-15 06:00:00,
2013-02-14 23:10:00,34.5,18.2,30.39,SE,145,0.0,0.0,51,0.00,,,0.00,Wunderground v.1.15,2013-02-15 06:10:00,
2013-02-14 23:20:00,34.4,18.6,30.39,SSE,159,1.0,3.0,52,0.00,,,0.00,Wunderground v.1.15,2013-02-15 06:20:00,
2013-02-14 23:30:00,35.8,19.0,30.38,WNW,284,2.0,2.0,50,0.00,,,0.00,Wunderground v.1.15,2013-02-15 06:30:00,
2013-02-14 23:35:00,36.1,18.8,30.38,SW,235,2.0,2.0,49,0.00,,,0.00,Wunderground v.1.15,2013-02-15 06:35:00,
2013-02-14 23:45:00,36.4,18.6,30.38,WNW,299,2.0,3.0,48,0.00,,,0.00,Wunderground v.1.15,2013-02-15 06:45:00,
2013-02-14 23:50:00,36.4,18.6,30.39,WNW,291,2.0,3.0,48,0.00,,,0.00,Wunderground v.1.15,2013-02-15 06:50:00,